This demonstration page uses our WeatherBlox Daily Observations layout. Learn more.

Left ArrowRight Arrow

Hourly Observations for March 6, 2021

Temp ( °F °C ) Dew Point ( °F °C ) Humidity (%) Winds ( mph kmh ) Pressure ( in mb ) Visibility ( mi km ) Precip ( " mm )
12:53 am 00:53 Clear 30 -1.1 20 -6.7 66 66 NNW 3 6 30.29 1026 10 16.0934 0 0
1:53 am 01:53 Clear 29 -1.7 20 -6.7 69 69 Calm 30.3 1026 10 16.0934 0 0
2:53 am 02:53 Clear 27 -2.8 20 -6.7 75 75 WNW 5 7 30.31 1026 10 16.0934 0 0
3:53 am 03:53 Clear 23 -5 18 -7.8 81 81 Calm 30.31 1026 10 16.0934 0 0
4:53 am 04:53 Clear 20 -6.7 17 -8.3 89 89 WNW 3 6 30.32 1027 10 16.0934 0 0
5:53 am 05:53 Clear 22 -5.6 18 -7.8 85 85 NW 3 6 30.33 1027 10 16.0934 0 0
6:53 am 06:53 Clear 19 -7.2 16 -8.9 88 88 Calm 30.35 1028 10 16.0934 0 0
7:53 am 07:53 Sunny 24 -4.4 20 -6.7 84 84 Calm 30.37 1028 10 16.0934 0 0
8:53 am 08:53 Sunny 32 0 20 -6.7 61 61 NNW 7 11 30.39 1029 10 16.0934 0 0
9:53 am 09:53 Sunny 35 1.7 19 -7.2 52 52 NW 6 9 30.38 1029 10 16.0934 0 0
10:53 am 10:53 Sunny 38 3.3 18 -7.8 44 44 NNE 8 13 30.38 1029 10 16.0934 0 0
11:53 am 11:53 Sunny 40 4.4 17 -8.3 40 40 NNW 9 15 30.37 1029 10 16.0934 0 0
12:53 pm 12:53 Sunny 43 6.1 19 -7.2 38 38 NNW 10 17 30.37 1029 10 16.0934 0 0
1:53 pm 13:53 Sunny 44 6.7 18 -7.8 35 35 N 9 15 30.34 1028 10 16.0934 0 0
2:53 pm 14:53 Sunny 45 7.2 16 -8.9 31 31 N 9 15 30.33 1027 10 16.0934 0 0
3:53 pm 15:53 Sunny 46 7.8 15 -9.4 29 29 VRB 6 9 30.32 1027 10 16.0934 0 0
4:53 pm 16:53 Sunny 46 7.8 15 -9.4 29 29 NW 3 6 30.32 1027 10 16.0934 0 0
5:53 pm 17:53 Sunny 44 6.7 15 -9.4 31 31 NW 3 6 30.31 1027 10 16.0934 0 0
6:53 pm 18:53 Clear 38 3.3 17 -8.3 43 43 NW 6 9 30.32 1027 10 16.0934 0 0
7:53 pm 19:53 Clear 34 1.1 18 -7.8 52 52 NW 6 9 30.33 1027 10 16.0934 0 0
8:53 pm 20:53 Clear 32 0 18 -7.8 56 56 Calm 30.33 1027 10 16.0934 0 0
9:53 pm 21:53 Clear 27 -2.8 18 -7.8 69 69 Calm 30.32 1027 10 16.0934 0 0
10:53 pm 22:53 Clear 25 -3.9 18 -7.8 75 75 Calm 30.31 1026 10 16.0934 0 0
11:53 pm 23:53 Clear 24 -4.4 19 -7.2 81 81 Calm 30.31 1026 10 16.0934 0 0

Powered by AerisWeather